{"data":{"norad_id":61583,"intl_designator":"2024-187K","name":"STARLINK-11368 [DTC]","alt_names":[],"object_type":"PAYLOAD","status":"ACTIVE","operator":null,"country":"US","launch_date":"2024-10-18","launch_site_code":"AFETR","launch_vehicle":null,"mission":null,"orbit_class":"UNKNOWN","rcs_meters":null,"size_class":null,"mass_kg":null,"dimensions":null,"purposes":["comms"],"wikipedia_slug":null,"has_3d_model":false,"image_url":null,"decayed_at":null,"tle_current":{"epoch":"2026-09-21T15:26:00.049632Z","epoch_age_seconds":93350,"freshness":"FRESH","line1":"1 61583U 24187K   26264.64305613  .00000584  00000+0  96779-5 0  9992","line2":"2 61583  53.1590  50.5184 0000992  83.7867 276.3264 15.69714068111471","mean_motion":15.69714068,"eccentricity":9.92e-5,"inclination_deg":53.159,"raan_deg":50.5184,"arg_perigee_deg":83.7867,"mean_anomaly_deg":276.3264,"bstar":9.6779e-6,"rev_number":11147,"period_min":91.736452476006,"perigee_km":359.04671445682,"apogee_km":360.38350431532,"semimajor_km":6737.8521093861,"source":"CELESTRAK","updated_at":"2026-09-22T09:00:49.391924Z"}}}